Terug naar catalogus

HJS-7C

ActiefWetenschapLEO
NORAD 65619·PAYLOAD·🇨🇳 China

Gelanceerd Sep 16, 2025 vanaf Jiuquan Satellite Launch Center

Loading…

Volgende Passages (komende 24 uur)

TLE

VersSource: Space-Track

Epoch: Sep 14, 2026, 09:28 UTC

1 65619U 25209C   26257.39512737 -.00000080  00000-0  85614-4 0  9991
2 65619  50.0012  31.7704 0002056  60.8846 299.2238 13.41474444 49615

Volg HJS-7C in realtime met AllMySat

Download on the App Store